User: anonymous   Login
Location: Laterina
(43.5167°N, 11.7167°E)
Time: 13:27:36
(UTC+00:00)
Language:

Cosmos 2279 Rocket - Orbit

View from above orbital plane
View from above orbital plane
View from above satellite
View from above satellite

Ground track
Ground track

The orbit data is extracted from the following two-line orbital elements,

1 23093U 94024B   20333.49620949 +.00000016 +00000-0 +17779-6 0  9994
2 23093 082.9471 256.9824 0011567 073.1566 287.0859 13.77835051804735
Epoch (UTC): 28 November 2020 11:54:32
Eccentricity: 0.0011567
inclination: 82.9471°
perigee height: 963 km
apogee height: 980 km
right ascension of ascending node: 256.9824°
argument of perigee: 73.1566°
revolutions per day: 13.77835051
mean anomaly at epoch: 287.0859°
orbit number at epoch: 80473

The dashed part of the orbit path shows where the satellite is in the earth's shadow,  

DLR